Weather Roundup
Issued by NWS Chicago, IL

Home | Current Version | Previous Version | Graphics & Text | Print | Product List | Glossary On
Versions: 1 2 3 4 5 6 7 8 9 10 11 12 13 14 15 16 17 18 19 20 21 22 23 24 25 26 27 28 29 30 31 32 33 34 35 36 37 38 39 40 41 42 43 44 45 46 47 48 49 50
925
NZUS59 KLOT 110512
HRRLOT

CHICAGO AREA WEATHER ROUNDUP
NATIONAL WEATHER SERVICE CHICAGO/ROMEOVILLE IL
1100 PM CST SAT DEC 10 2016

NOTE: "FAIR" INDICATES FEW OR NO CLOUDS BELOW 12,000 FEET WITH NO
SIGNIFICANT WEATHER AND/OR OBSTRUCTIONS TO VISIBILITY.

* THESE STATIONS ARE NOT UNDER NWS QUALITY CONTROL. THEY ALSO MAY NOT
  REPORT WEATHER SUCH AS PRECIPITATION OR FOG.

ILZ005-006-012>014-019>023-110600-
NORTHEAST ILLINOIS

CITY           SKY/WX    TMP DP  RH WIND       PRES   REMARKS
OHARE          LGT SNOW  23  20  88 S8        30.29S FOG     WCI  14
MIDWAY         FLURRIES  24  19  81 S8        30.31S WCI  15
AURORA         CLOUDY    24  20  84 SE12      30.28S WCI  13
LANSING*       LGT SNOW  24  23  95 S7        30.32S WCI  16
JOLIET*        CLOUDY    26  22  87 SE8       30.30F WCI  17
WAUKEGAN       LGT SNOW  23  19  85 S7        30.29S FOG     WCI  15
DUPAGE AIRPORT CLOUDY    23  19  85 SE12      30.28S WCI  12
WHEELING       LGT SNOW  22  19  89 S7        30.32R FOG     WCI  13
KANKAKEE*      LGT SNOW  25  22  90 SE10      30.31F WCI  14
MORRIS*        MIX PCPN  25  22  87 SE12      30.27F WCI  14
LEWIS AIRPORT* MIX PCPN  24  23  97 SE12      30.29F WCI  13
NORTHERLY ISL    N/A     23  21  92 S10         N/A  WCI  13
$$

WIZ051-052-058>065-066-070>072-110600-
SOUTHEAST WISCONSIN

CITY           SKY/WX    TMP DP  RH WIND       PRES   REMARKS
MILWAUKEE      LGT SNOW  22  18  85 S3        30.30S FOG
KENOSHA*       LGT SNOW  22  18  85 S8        30.29F FOG     WCI  12
RACINE*        LGT SNOW  22  18  85 S6        30.32S FOG     WCI  14
BURLINGTON     LGT SNOW  25  24  96 CALM      30.28S
WAUKESHA       LGT SNOW  19  18  93 SE6       30.29R VSB 1   WCI  11
WEST BEND      LGT SNOW  19  19 100 CALM      30.28S
$$

INZ001>003-010>013-019-020-110600-
NORTHWEST INDIANA

CITY           SKY/WX    TMP DP  RH WIND       PRES   REMARKS
GARY*          LGT SNOW  26  23  90 S7        30.33S WCI  18
MICHIGAN CITY* NOT AVBL
RENSSELAER*    NOT AVBL
VALPARAISO     LGT SNOW  24  20  84 MISG      30.32F FOG
$$

LMZ740>746-110600-
SOUTHERN LAKE MICHIGAN

STATION/POSITION TIME  SKY/WX   TEMP WIND        PRES    VSBY
                                AIR  DIR/SP/G
                 (UTC)          (F)  (DEG/KT/KT) (MB)    (MI)
HARRISON CRIB    NOT AVBL
BURNHAM HARBOR   0500            24  180/  6/ 11   N/A
CALUMET HARBOR   0442            24  160/ 10/ 13 1026.0S
BURNS HARBOR     0440            24  170/ 10/ 13 1027.4F
MICHIGAN CITY    NOT AVBL
$$

ABBREVIATIONS USED IN REMARKS
   TC - TEMPERATURE IN CELSIUS
  WCI - WIND CHILL INDEX
   HX - HEAT INDEX
  VSB - VISIBILITY
$$




USA.gov is the U.S. government's official web portal to all federal, state and local government web resources and services.